Regional Weather Roundup
Issued by NWS

Home | Current Version | Previous Version | Graphics & Text | Print | Product List | Glossary On
Versions: 1 2 3 4 5 6 7 8 9 10 11 12 13 14 15 16 17 18 19 20 21 22 23 24 25 26 27 28 29 30 31 32 33 34 35 36 37 38 39 40 41 42 43 44 45 46 47 48 49 50
000
ASUS43 KOAX 021110
RWRNE

WEATHER ROUNDUP FOR NEBRASKA
NATIONAL WEATHER SERVICE OMAHA NE
600 AM CDT TUE SEP 02 2014

NOTES: SATELLITE DATA IS BEING USED TO AUGMENT CLOUD COVER ABOVE
       12000 FEET.
       "FAIR" INDICATES FEW OR NO CLOUDS BELOW 12,000 FEET WITH NO
       SIGNIFICANT WEATHER AND/OR OBSTRUCTIONS TO VISIBILITY.

  * THESE STATIONS DO NOT REPORT WEATHER SUCH AS RAIN...SNOW OR FOG.

NEZ001>004-019>022-054>056-021200-
NEBRASKA PANHANDLE

CITY           SKY/WX    TMP DP  RH WIND       PRES   REMARKS
SCOTTSBLUFF    CLEAR     42  41  96 N6        30.07S
ALLIANCE       CLEAR     42  40  92 CALM      30.06S
CHADRON        CLEAR     44  42  93 SW6       30.02F
KIMBALL        CLEAR     44  42  93 W9        30.10S
SIDNEY         CLEAR     44  41  89 NW9       30.09F
$$

NEZ057>060-069>072-079>082-021200-
SOUTHWEST NEBRASKA

CITY           SKY/WX    TMP DP  RH WIND       PRES   REMARKS
NORTH PLATTE   CLEAR     46  45  96 NW3       30.02S FOG
IMPERIAL       CLEAR     53  49  86 W3        30.04S
LEXINGTON      CLEAR     51  50  97 W5        30.01S FOG
MCCOOK         CLEAR     53  52  96 NW5       30.02S
OGALLALA       CLEAR     44  43  98 W5        30.04F
$$

NEZ005>010-023>029-035>040-094-021200-
NORTH CENTRAL NEBRASKA

CITY           SKY/WX    TMP DP  RH WIND       PRES   REMARKS
VALENTINE      CLEAR     47  46  97 W6        30.00F
AINSWORTH      CLEAR     50  47  91 W9        30.01S
BROKEN BOW     CLEAR     52  50  93 N3        30.00S
O`NEILL        CLEAR     54  53  97 W7        29.97S
ORD            CLEAR     50  48  93 N5        29.97F
THEDFORD       CLEAR     48  47  97 W6        30.03S
$$

NEZ041-046>049-061>064-073>077-083>087-021200-
SOUTH CENTRAL NEBRASKA

CITY           SKY/WX    TMP DP  RH WIND       PRES   REMARKS
GRAND ISLAND   CLEAR     54  52  93 W7        29.99S
AURORA         CLEAR     53  53 100 NW3       29.98F
HASTINGS       CLEAR     54  51  90 CALM      29.99S
HEBRON         CLEAR     55  52  91 CALM      29.97S
HOLDREGE       CLEAR     54  53  95 CALM      30.00S
KEARNEY *      CLEAR     54  52  94 CALM      30.00S
YORK           CLEAR     52 N/A N/A N5        29.98S
$$

NEZ011>018-030>034-042>045-021200-
NORTHEAST NEBRASKA

CITY           SKY/WX    TMP DP  RH WIND       PRES   REMARKS
NORFOLK        CLEAR     54  52  93 W5        29.95S
ALBION         CLEAR     53  51  94 CALM      29.97S
BLAIR          CLEAR     57  55  93 NW3       29.95R
FREMONT        CLEAR     57  55  95 NW3       29.94F
TEKAMAH        CLEAR     56  55  97 CALM      29.94S
WAYNE          CLEAR     55  53  95 CALM      29.95R
$$

NEZ050>053-065>068-078-088>093-021200-
SOUTHEAST NEBRASKA

CITY           SKY/WX    TMP DP  RH WIND       PRES   REMARKS
LINCOLN        CLEAR     58  55  90 CALM      29.97F
OMAHA EPPLEY   CLEAR     60  56  86 CALM      29.95S
BEATRICE       CLEAR     56  56 100 NW8       29.96S
FALLS CITY     CLEAR     60  59  96 N6        29.94R
NEBRASKA CITY  CLEAR     58  58 100 W5        29.96R
PLATTSMOUTH    CLEAR     58  56  92 SW3       29.95S
$$

NEZ044-045-051>053-067-021200-
OMAHA AREA

CITY           SKY/WX    TMP DP  RH WIND       PRES   REMARKS
OMAHA EPPLEY   CLEAR     60  56  86 CALM      29.95S
BLAIR          CLEAR     57  55  93 NW3       29.95R
FREMONT        CLEAR     57  55  95 NW3       29.94F
MILLARD        CLEAR     59  57  92 CALM      29.94F
OFFUTT AFB     CLEAR     59  59 100 CALM      29.94F
PLATTSMOUTH    CLEAR     58  56  92 SW3       29.95S
WAHOO          FAIR      56  53  92 CALM      29.95S
$$


USA.gov is the U.S. government's official web portal to all federal, state and local government web resources and services.